Location: Arthez
(43.0833°N, 0.2500°W)
Time: 02:09:17
(UTC+00:00)

NOSS 3-1 (A) - Pass Details

Date: 05 June 2022
Orbit: 711 x 1501 km, 63.4° (Epoch: 21 May)

Event Time Altitude Azimuth Distance (km) Brightness Sun altitude
Rises 20:56:40 0° 325° (NW) 3,873 8.7 -12.0°
Reaches altitude 10° 20:59:15 10° 331° (NNW) 3,025 7.5 -12.3°
Maximum altitude 21:06:27 52° 47° (NE) 1,575 4.6 -13.2°
Enters shadow 21:13:37 15° 118° (ESE) 3,134 5.6 -14.0°
